Branson, MO

10:34 PM CDT on September 23, 2017 (GMT -0500)
Branson

Weather History for KBBG - January, 2013

Change the Weather History Date:

Sunday, January 20, 2013

  Actual Average (KHRO) Record (KHRO)
Temperature  
Mean Temperature 42 °F -  
Max Temperature 53 °F 43 °F 73 °F (1986)
Min Temperature 32 °F 25 °F -13 °F (1985)
Degree Days  
Heating Degree Days 22    
Moisture  
Dew Point 25 °F    
Average Humidity 56    
Maximum Humidity 75    
Minimum Humidity 33    
Precipitation  
Precipitation 0.00 in - - ()
Sea Level Pressure  
Sea Level Pressure 30.22 in    
Wind  
Wind Speed 6 mph (North)    
Max Wind Speed 12 mph    
Max Gust Speed -    
Visibility 10 miles    
Events      
Averages and records for this station are not official NWS values.
T = Trace of Precipitation, MM = Missing Value Source: NWS Daily Summary

Daily Weather History Graph

Daily Weather History Graph

Search for Another Location

Airport or City:

Trip Planner

Search our weather history database for the weather conditions in past years. The results will help you decide how hot, cold, wet, or windy it might be!

Date:

Astronomy

Jan. 20, 2013 Rise Set
Actual Time 7:21 AM CST 5:26 PM CST
Civil Twilight 6:54 AM CST 5:54 PM CST
Nautical Twilight 6:22 AM CST 6:25 PM CST
Astronomical Twilight 5:51 AM CST 6:56 PM CST
Moon 12:27 PM CST (1/20) 1:55 AM CST (1/20)
Length of Visible Light 11h 00m
Length of Day
10h 04m
Waxing Gibbous, 66% of the Moon is Illuminated
Jan 20
Waxing Gibbous
Jan 26
Full
Feb 3
Last Quarter
Feb 10
New
Feb 17
First Quarter

Hourly Weather History & Observations

Time (CST) Temp. Windchill Dew Point Humidity Pressure Visibility Wind Dir Wind Speed Gust Speed Precip Events Conditions
12:35 AM 46.4 °F 43.5 °F 32.0 °F 57% 30.21 in 10.0 mi WNW 5.8 mph - N/A   Clear
12:55 AM 46.4 °F 42.4 °F 32.0 °F 57% 30.22 in 10.0 mi NW 8.1 mph - N/A   Clear
1:15 AM 42.8 °F 38.6 °F 32.0 °F 66% 30.22 in 10.0 mi NNW 6.9 mph - N/A   Clear
1:35 AM 41.0 °F 38.0 °F 32.0 °F 70% 30.23 in 10.0 mi NNW 4.6 mph - N/A   Clear
1:55 AM 41.0 °F 36.4 °F 32.0 °F 70% 30.23 in 10.0 mi NNW 6.9 mph - N/A   Clear
2:15 AM 41.0 °F 37.1 °F 30.2 °F 65% 30.23 in 10.0 mi North 5.8 mph - N/A   Clear
2:35 AM 39.2 °F 35.0 °F 30.2 °F 70% 30.24 in 10.0 mi North 5.8 mph - N/A   Clear
2:55 AM 39.2 °F 35.9 °F 28.4 °F 65% 30.24 in 10.0 mi NNW 4.6 mph - N/A   Clear
3:15 AM 41.0 °F 38.0 °F 30.2 °F 65% 30.24 in 10.0 mi NNW 4.6 mph - N/A   Clear
3:35 AM 39.2 °F 35.9 °F 28.4 °F 65% 30.24 in 10.0 mi NNW 4.6 mph - N/A   Clear
3:55 AM 37.4 °F 34.9 °F 28.4 °F 70% 30.24 in 10.0 mi NW 3.5 mph - N/A   Clear
4:15 AM 37.4 °F 34.9 °F 28.4 °F 70% 30.24 in 10.0 mi NW 3.5 mph - N/A   Clear
4:35 AM 37.4 °F - 28.4 °F 70% 30.24 in 10.0 mi Calm Calm - N/A   Clear
4:55 AM 37.4 °F - 28.4 °F 70% 30.25 in 10.0 mi Calm Calm - N/A   Clear
5:15 AM 37.4 °F 33.8 °F 28.4 °F 70% 30.25 in 10.0 mi NW 4.6 mph - N/A   Clear
5:35 AM 35.6 °F 32.8 °F 28.4 °F 75% 30.25 in 10.0 mi NW 3.5 mph - N/A   Clear
6:45 AM 37.4 °F 34.9 °F 26.6 °F 65% 30.26 in 10.0 mi NNE 3.5 mph - N/A   Clear
7:45 AM 35.6 °F 32.8 °F 26.6 °F 70% 30.28 in 10.0 mi NE 3.5 mph - N/A   Clear
8:45 AM 39.2 °F 37.0 °F 26.6 °F 61% 30.29 in 10.0 mi East 3.5 mph - N/A   Clear
9:45 AM 41.0 °F 34.7 °F 24.8 °F 53% 30.28 in 10.0 mi SE 10.4 mph - N/A   Partly Cloudy
10:51 AM 44.6 °F 40.7 °F 19.4 °F 37% 30.27 in 10.0 mi ESE 6.9 mph - N/A   Clear
11:50 AM 46.4 °F 43.5 °F 21.2 °F 37% 30.25 in 10.0 mi SE 5.8 mph - N/A   Clear
12:55 PM 48.2 °F - 23.0 °F 37% 30.20 in 10.0 mi SSE 5.8 mph - N/A   Partly Cloudy
1:45 PM 50.0 °F - 23.0 °F 35% 30.17 in 10.0 mi ESE 9.2 mph - N/A   Partly Cloudy
2:48 PM 53.6 °F - 26.6 °F 35% 30.15 in 10.0 mi SSE 5.8 mph - N/A   Partly Cloudy
3:46 PM 53.6 °F - 24.8 °F 33% 30.15 in 10.0 mi East 5.8 mph - N/A   Partly Cloudy
4:47 PM 50.0 °F - 24.8 °F 37% 30.15 in 10.0 mi ENE 5.8 mph - N/A   Partly Cloudy
5:45 PM 48.2 °F - 24.8 °F 40% 30.16 in 10.0 mi ENE 4.6 mph - N/A   Partly Cloudy
6:45 PM 44.6 °F 42.2 °F 24.8 °F 46% 30.17 in 10.0 mi East 4.6 mph - N/A   Partly Cloudy
7:55 PM 42.8 °F 38.0 °F 23.0 °F 46% 30.18 in 10.0 mi North 8.1 mph - N/A   Overcast
8:15 PM 39.2 °F 37.0 °F 24.8 °F 56% 30.18 in 10.0 mi NNW 3.5 mph - N/A   Overcast
8:35 PM 39.2 °F 35.0 °F 23.0 °F 52% 30.18 in 10.0 mi North 5.8 mph - N/A   Overcast
8:45 PM 37.4 °F 32.1 °F 23.0 °F 56% 30.19 in 10.0 mi North 6.9 mph - N/A   Mostly Cloudy
8:55 PM 37.4 °F 32.1 °F 21.2 °F 52% 30.19 in 10.0 mi North 6.9 mph - N/A   Overcast
9:15 PM 37.4 °F 32.8 °F 19.4 °F 48% 30.20 in 10.0 mi NNE 5.8 mph - N/A   Overcast
9:55 PM 37.4 °F 32.8 °F 17.6 °F 45% 30.22 in 10.0 mi NNW 5.8 mph - N/A   Overcast
10:15 PM 35.6 °F 27.5 °F 17.6 °F 48% 30.23 in 10.0 mi North 11.5 mph - N/A   Overcast
10:35 PM 33.8 °F 27.0 °F 17.6 °F 52% 30.24 in 10.0 mi North 8.1 mph - N/A   Overcast
10:55 PM 33.8 °F 25.8 °F 17.6 °F 52% 30.25 in 10.0 mi North 10.4 mph - N/A   Overcast
11:15 PM 32.0 °F 23.0 °F 17.6 °F 55% 30.25 in 10.0 mi North 11.5 mph - N/A   Mostly Cloudy
11:55 PM 32.0 °F 24.2 °F 17.6 °F 55% 30.26 in 10.0 mi North 9.2 mph - N/A   Partly Cloudy